"startDT [UTC]","vpos","CH4 [ppm]","stdev(CH4) [ppm]","CO2 [ppm]","stdev(CO2) [ppm]","H2O_reported [%]","stdev(H2O_reported)","CavityPressure [torr]","CavityTemp [C]","OutletValve","CH4_dry [ppm]","CO2_dry [ppm]","DasTemp [C]","EtalonTemp [C]","WarmBoxTemp [C]","MPVPosition","T_ECpre [C]","T_EC1 [C]","T_EC2 [C]","p_inlet [hPa]","p_in [hPa]","p_out [hPa]","T_inlet [C]","RH_inlet [%]","dwpt_inlet [C]","T_vent [C]","RH_vent [%]","dwpt_vent [C]","flow_vent [l min-1]","flow_inlet [l min-1]","dwpt_sample [C]","T_room [C]"
2015-08-14 00:00:00,3.0,1.87631,0.01241,394.457,5.340,0.2670,0.3652,139.668,45.000,31153.08572,1.88467,395.559,32.523,45.068,45.000,0.00,0.10,-272.73,-272.80,-6,467,-5,23.1,27.0,3.1,23.0,27.6,3.3,5.73,1.81,2.4,27.2
2015-08-14 00:01:00,3.0,1.87398,0.00051,396.820,0.040,0.0453,0.0032,139.992,45.000,30955.46142,1.87475,397.040,32.526,45.068,45.000,0.00,0.10,-272.73,-272.79,-5,467,-5,23.1,27.1,3.1,22.9,27.8,3.3,5.73,1.96,2.4,27.1
2015-08-14 00:02:00,3.0,1.87456,0.00046,397.016,0.108,0.0393,0.0024,139.999,45.000,30897.40266,1.87532,397.196,32.514,45.068,45.000,0.00,0.10,-272.74,-272.79,-6,468,-5,23.2,27.1,3.2,22.9,27.7,3.3,5.73,1.80,2.4,27.1
2015-08-14 00:03:00,3.0,1.87449,0.00031,397.288,0.068,0.0327,0.0031,139.996,45.000,30849.64896,1.87507,397.439,32.502,45.068,45.000,0.00,0.10,-272.73,-272.80,-6,468,-5,23.1,27.2,3.2,22.9,27.8,3.3,5.73,1.81,2.4,27.2
2015-08-14 00:04:00,3.0,1.87455,0.00022,397.388,0.024,0.0249,0.0026,139.998,45.000,30811.75298,1.87503,397.508,32.500,45.068,45.000,0.00,0.10,-272.73,-272.79,-5,468,-5,23.1,27.2,3.2,22.9,27.9,3.4,5.73,1.96,2.4,27.1
2015-08-14 00:05:00,3.0,1.87498,0.00047,397.435,0.030,0.0200,0.0019,139.999,45.000,30783.13747,1.87534,397.530,32.500,45.068,45.000,0.00,0.10,-272.74,-272.80,-6,468,-5,23.2,27.1,3.2,23.0,27.8,3.4,5.73,1.87,2.4,27.1
2015-08-14 00:06:00,3.0,1.87496,0.00036,397.456,0.037,0.0156,0.0021,139.997,45.000,30757.09694,1.87524,397.532,32.500,45.068,45.000,0.00,0.10,-272.74,-272.80,-6,469,-5,23.1,27.0,3.1,22.9,27.7,3.3,5.73,1.77,2.4,27.1
2015-08-14 00:07:00,3.0,1.87509,0.00023,397.515,0.017,0.0128,0.0013,140.001,45.000,30737.91566,1.87533,397.574,32.489,45.068,45.000,0.00,0.10,-272.73,-272.79,-5,469,-5,23.2,27.0,3.1,23.0,27.8,3.4,5.73,1.92,2.4,27.1
2015-08-14 00:08:00,3.0,1.87499,0.00032,397.509,0.019,0.0113,0.0024,139.999,45.000,30723.10668,1.87522,397.563,32.492,45.068,45.000,0.00,0.10,-272.73,-272.80,-6,470,-5,23.1,27.0,3.1,22.9,27.7,3.3,5.73,1.94,2.4,27.2
2015-08-14 00:09:00,3.0,1.87506,0.00038,397.501,0.022,0.0099,0.0019,140.000,45.000,30710.29422,1.87523,397.549,32.456,45.068,45.000,0.00,0.10,-272.73,-272.80,-6,470,-5,23.1,27.1,3.2,23.0,27.8,3.4,5.73,1.78,2.4,27.2
2015-08-14 00:10:00,3.0,1.87515,0.00022,397.523,0.021,0.0094,0.0020,139.998,45.000,30699.48308,1.87530,397.567,32.481,45.068,45.000,0.00,0.10,-272.73,-272.80,-6,471,-5,23.2,27.0,3.1,22.9,27.8,3.3,5.73,1.83,2.5,27.1
2015-08-14 00:11:00,3.0,1.87500,0.00023,397.538,0.022,0.0072,0.0024,139.997,45.000,30692.61859,1.87515,397.574,32.477,45.068,45.000,0.00,0.10,-272.73,-272.79,-6,472,-5,23.1,27.0,3.1,23.0,27.8,3.3,5.73,1.97,2.4,27.1
2015-08-14 00:12:00,3.0,1.87506,0.00038,397.522,0.023,0.0059,0.0017,140.000,45.000,30687.26426,1.87516,397.549,32.480,45.068,45.000,0.00,0.10,-272.74,-272.80,-6,472,-5,23.2,26.9,3.1,22.9,27.7,3.3,5.73,1.85,2.4,27.1
2015-08-14 00:13:00,3.0,1.87499,0.00034,397.520,0.031,0.0065,0.0027,140.004,45.000,30682.35201,1.87514,397.553,32.480,45.068,45.000,0.00,0.10,-272.74,-272.80,-6,473,-5,23.2,27.0,3.2,23.0,27.7,3.3,5.73,1.78,2.4,27.1
2015-08-14 00:14:00,3.0,1.87493,0.00023,397.531,0.028,0.0052,0.0025,140.001,45.000,30678.58282,1.87503,397.554,32.472,45.068,45.000,0.00,0.10,-272.73,-272.80,-7,473,-5,23.2,27.1,3.2,23.0,27.8,3.4,5.73,1.93,2.4,27.1
2015-08-14 00:15:00,3.0,1.87516,0.00035,397.554,0.011,0.0044,0.0015,140.000,45.000,30675.79268,1.87523,397.574,32.466,45.068,45.000,0.00,0.10,-272.74,-272.80,-6,474,-5,23.2,27.0,3.2,23.0,27.8,3.4,5.73,1.92,2.4,27.1
2015-08-14 00:16:00,3.0,1.87519,0.00030,397.557,0.015,0.0038,0.0015,140.004,45.000,30674.42449,1.87525,397.575,32.458,45.068,45.000,0.00,0.10,-272.74,-272.80,-6,474,-5,23.2,26.9,3.2,23.0,27.7,3.4,5.73,1.78,2.4,27.2
2015-08-14 00:17:00,3.0,1.87540,0.00031,397.554,0.027,0.0044,0.0018,139.998,45.000,30669.24380,1.87547,397.576,32.455,45.068,45.000,0.00,0.10,-272.73,-272.79,-6,474,-5,23.2,26.7,3.0,22.8,27.5,3.1,5.73,1.86,2.4,27.1
2015-08-14 00:18:00,3.0,1.87517,0.00044,397.535,0.029,0.0032,0.0021,139.999,45.000,30667.16443,1.87524,397.551,32.451,45.068,45.000,0.00,0.10,-272.74,-272.80,-5,475,-5,23.2,26.7,3.0,23.0,27.4,3.2,5.73,1.96,2.4,27.1
2015-08-14 00:19:00,3.0,1.87533,0.00028,397.578,0.031,0.0030,0.0014,140.000,45.000,30664.92595,1.87538,397.591,32.443,45.068,45.000,0.00,0.10,-272.74,-272.80,-6,475,-5,23.2,26.7,3.0,23.0,27.5,3.3,5.73,1.83,2.4,27.2
2015-08-14 00:20:00,0.0,1.91421,0.00958,387.039,4.990,0.7506,0.3498,140.257,45.000,33770.61252,1.92581,390.798,32.441,45.068,45.000,0.00,0.10,-272.74,-272.80,-8,1006,-5,23.2,26.7,3.0,23.0,27.5,3.2,5.73,1.80,2.4,27.2
2015-08-14 00:21:00,0.0,1.91477,0.00044,384.142,0.114,0.9517,0.0024,140.007,45.000,34100.60037,1.93327,388.681,32.439,45.068,45.000,0.00,0.10,-272.73,-272.79,-7,1007,-5,23.2,26.7,3.0,23.0,27.5,3.3,5.73,1.92,2.4,27.2
2015-08-14 00:22:00,0.0,1.91379,0.00018,384.079,0.127,0.9555,0.0015,140.005,45.000,34168.84778,1.93240,388.628,32.440,45.069,45.000,0.00,0.10,-272.74,-272.80,-6,1009,-5,23.2,26.6,3.0,23.0,27.5,3.2,5.73,1.98,2.4,27.1
2015-08-14 00:23:00,0.0,1.91370,0.00030,383.887,0.087,0.9573,0.0026,140.002,45.000,34217.33310,1.93228,388.450,32.437,45.068,45.000,0.00,0.10,-272.74,-272.80,-7,1009,-5,23.2,26.6,3.0,23.0,27.4,3.2,5.73,1.94,2.4,27.2
2015-08-14 00:24:00,0.0,1.91327,0.00036,384.177,0.168,0.9582,0.0015,139.997,45.000,34255.65191,1.93191,388.728,32.438,45.068,45.000,0.00,0.10,-272.73,-272.79,-7,1009,-5,23.2,26.6,2.9,23.0,27.4,3.2,5.73,1.87,2.5,27.2
2015-08-14 00:25:00,0.0,1.91312,0.00029,384.166,0.091,0.9598,0.0013,140.001,45.000,34289.36299,1.93177,388.739,32.438,45.068,45.000,0.00,0.10,-272.73,-272.80,-7,1009,-5,23.2,26.6,3.0,23.0,27.5,3.2,5.73,1.85,2.4,27.2
2015-08-14 00:26:00,0.0,1.91280,0.00035,384.123,0.066,0.9604,0.0019,140.003,45.000,34315.31036,1.93141,388.702,32.438,45.068,45.000,0.00,0.10,-272.74,-272.80,-7,1009,-5,23.2,26.6,2.9,23.0,27.5,3.2,5.73,1.92,2.4,27.2
2015-08-14 00:27:00,0.0,1.91295,0.00051,383.954,0.104,0.9640,0.0023,139.999,45.000,34339.56426,1.93168,388.549,32.444,45.068,45.000,0.00,0.10,-272.73,-272.80,-7,1009,-5,23.2,26.7,3.0,23.0,27.5,3.3,5.73,1.97,2.4,27.2
2015-08-14 00:28:00,0.0,1.91308,0.00040,384.094,0.112,0.9617,0.0017,139.999,45.000,34359.44552,1.93175,388.671,32.452,45.068,45.000,0.00,0.10,-272.73,-272.80,-7,1009,-5,23.2,26.7,3.0,23.0,27.5,3.2,5.73,1.94,2.4,27.1
2015-08-14 00:29:00,0.0,1.91267,0.00035,384.053,0.178,0.9580,0.0016,139.999,45.000,34376.38711,1.93130,388.626,32.447,45.068,45.000,0.00,0.10,-272.74,-272.81,-7,1010,-5,23.2,26.5,2.9,23.0,27.4,3.2,5.73,1.86,2.4,27.1
2015-08-14 00:30:00,0.0,1.91252,0.00044,383.948,0.165,0.9605,0.0014,140.003,45.000,34391.14334,1.93113,388.526,32.463,45.068,45.000,0.00,0.10,-272.74,-272.80,-7,1010,-5,23.2,26.6,2.9,23.0,27.4,3.2,5.73,1.85,2.4,27.2
2015-08-14 00:31:00,0.0,1.91213,0.00050,384.071,0.212,0.9604,0.0029,140.002,45.000,34402.37733,1.93080,388.631,32.454,45.068,45.000,0.00,0.10,-272.74,-272.79,-7,1010,-5,23.2,26.5,2.9,23.0,27.4,3.2,5.73,1.92,2.4,27.1
2015-08-14 00:32:00,0.0,1.91125,0.00044,384.217,0.055,0.9592,0.0026,139.998,45.000,34413.67634,1.92987,388.789,32.453,45.068,45.000,0.00,0.10,-272.74,-272.80,-7,1010,-5,23.2,26.5,2.9,23.0,27.4,3.2,5.73,1.98,2.4,27.2
2015-08-14 00:33:00,0.0,1.91167,0.00039,384.010,0.139,0.9610,0.0023,140.000,45.000,34421.51983,1.93034,388.590,32.451,45.068,45.000,0.00,0.10,-272.74,-272.80,-7,1010,-5,23.2,26.6,3.0,23.0,27.4,3.2,5.73,1.94,2.4,27.1
2015-08-14 00:34:00,0.0,1.91109,0.00043,384.030,0.110,0.9641,0.0028,139.998,45.000,34425.07834,1.92981,388.629,32.442,45.068,45.000,0.00,0.10,-272.73,-272.80,-7,1010,-5,23.2,26.6,3.0,23.0,27.4,3.2,5.73,1.85,2.4,27.2
2015-08-14 00:35:00,0.0,1.91099,0.00044,383.857,0.162,0.9587,0.0017,140.002,45.000,34431.98538,1.92962,388.419,32.440,45.068,45.000,0.00,0.10,-272.73,-272.80,-8,1010,-5,23.2,26.5,2.9,23.0,27.4,3.2,5.73,1.85,2.4,27.2
2015-08-14 00:36:00,0.0,1.91060,0.00049,384.149,0.092,0.9592,0.0016,139.999,45.000,34438.33491,1.92917,388.719,32.444,45.068,45.000,0.00,0.10,-272.74,-272.80,-7,1009,-5,23.2,26.5,2.9,23.0,27.3,3.2,5.73,1.94,2.4,27.1
2015-08-14 00:37:00,0.0,1.91064,0.00034,383.877,0.165,0.9604,0.0016,139.998,45.000,34442.49145,1.92923,388.454,32.443,45.068,45.000,0.00,0.10,-272.74,-272.80,-7,1010,-5,23.2,26.5,2.9,23.0,27.3,3.2,5.73,1.98,2.4,27.1
2015-08-14 00:38:00,0.0,1.91058,0.00043,383.496,0.152,0.9623,0.0024,139.998,45.000,34446.69905,1.92927,388.082,32.463,45.068,45.000,0.00,0.10,-272.74,-272.80,-7,1010,-5,23.2,26.5,2.9,23.0,27.4,3.2,5.73,1.92,2.4,27.1
2015-08-14 00:39:00,0.0,1.91035,0.00037,383.869,0.198,0.9598,0.0025,140.000,45.000,34451.05463,1.92900,388.421,32.489,45.068,45.000,0.00,0.10,-272.74,-272.80,-8,1010,-5,23.2,26.5,2.9,23.0,27.4,3.2,5.73,1.84,2.4,27.2
2015-08-14 00:40:00,0.0,1.91009,0.00035,384.041,0.078,0.9591,0.0020,139.998,45.000,34453.65183,1.92865,388.613,32.485,45.068,45.000,0.00,0.10,-272.73,-272.80,-7,1010,-5,23.2,26.5,2.9,23.0,27.3,3.1,5.73,1.86,2.4,27.2
2015-08-14 00:41:00,0.0,1.91003,0.00030,383.803,0.201,0.9645,0.0032,139.998,45.000,34454.91580,1.92877,388.410,32.466,45.068,45.000,0.00,0.10,-272.73,-272.79,-6,1010,-5,23.2,26.6,2.9,23.0,27.4,3.2,5.73,1.95,2.4,27.1
2015-08-14 00:42:00,0.0,1.90969,0.00052,383.632,0.261,0.9640,0.0022,140.002,45.000,34458.06440,1.92842,388.208,32.475,45.068,45.000,0.00,0.10,-272.74,-272.80,-7,1010,-5,23.2,26.6,3.0,23.0,27.5,3.2,5.73,1.97,2.4,27.1
2015-08-14 00:43:00,0.0,1.90881,0.00037,383.868,0.114,0.9582,0.0023,139.998,45.000,34460.31296,1.92739,388.428,32.485,45.068,45.000,0.00,0.10,-272.75,-272.80,-7,1010,-5,23.2,26.4,2.9,23.0,27.3,3.1,5.73,1.91,2.4,27.2
2015-08-14 00:44:00,0.0,1.90830,0.00035,383.935,0.092,0.9599,0.0018,140.002,45.000,34461.82618,1.92689,388.506,32.473,45.068,45.000,0.00,0.10,-272.74,-272.80,-7,1010,-5,23.2,26.5,2.9,23.0,27.3,3.1,5.73,1.84,2.4,27.2
2015-08-14 00:45:00,0.0,1.90816,0.00021,384.033,0.143,0.9611,0.0031,140.001,45.000,34463.42135,1.92679,388.608,32.438,45.068,45.000,0.00,0.10,-272.73,-272.79,-7,1010,-5,23.2,26.5,2.9,23.0,27.3,3.2,5.73,1.88,2.4,27.2
2015-08-14 00:46:00,0.0,1.90850,0.00025,383.903,0.083,0.9607,0.0024,140.002,45.000,34465.80536,1.92711,388.485,32.438,45.068,45.000,0.00,0.10,-272.74,-272.80,-7,1010,-5,23.2,26.5,2.9,23.0,27.3,3.1,5.73,1.96,2.4,27.1
2015-08-14 00:47:00,0.0,1.90835,0.00043,383.813,0.212,0.9569,0.0023,140.003,45.000,34464.78498,1.92687,388.377,32.438,45.069,45.000,0.00,0.10,-272.74,-272.80,-7,1010,-5,23.2,26.4,2.8,23.0,27.3,3.1,5.73,1.97,2.4,27.1
2015-08-14 00:48:00,0.0,1.90859,0.00054,383.669,0.263,0.9573,0.0019,140.003,45.000,34465.73150,1.92712,388.210,32.438,45.069,45.000,0.00,0.10,-272.73,-272.79,-7,1010,-5,23.2,26.4,2.8,23.0,27.2,3.1,5.73,1.89,2.4,27.2
2015-08-14 00:49:00,0.0,1.90861,0.00037,383.802,0.177,0.9547,0.0025,140.002,45.000,34466.99226,1.92709,388.358,32.436,45.069,45.000,0.00,0.10,-272.73,-272.80,-7,1010,-5,23.2,26.4,2.8,23.0,27.2,3.1,5.73,1.84,2.4,27.2
2015-08-14 00:50:00,0.0,1.90884,0.00035,383.404,0.187,0.9598,0.0044,140.001,45.000,34466.79877,1.92747,387.966,32.433,45.069,45.000,0.00,0.10,-272.73,-272.80,-7,1010,-5,23.2,26.5,3.0,22.9,27.3,3.1,5.73,1.88,2.4,27.2
2015-08-14 00:51:00,0.0,1.90831,0.00029,383.777,0.178,0.9579,0.0017,140.003,45.000,34469.50035,1.92682,388.325,32.431,45.069,45.000,0.00,0.10,-272.73,-272.80,-7,1010,-5,23.2,26.4,2.9,23.0,27.3,3.1,5.73,1.96,2.4,27.2
2015-08-14 00:52:00,0.0,1.90810,0.00043,383.932,0.098,0.9606,0.0022,139.999,45.000,34469.50950,1.92675,388.509,32.427,45.069,45.000,0.00,0.10,-272.73,-272.80,-7,1010,-5,23.2,26.5,2.9,22.9,27.3,3.1,5.73,1.97,2.4,27.2
2015-08-14 00:53:00,0.0,1.90788,0.00038,383.686,0.176,0.9631,0.0020,140.004,45.000,34471.20978,1.92656,388.280,32.421,45.069,45.000,0.00,0.10,-272.74,-272.80,-7,1010,-5,23.2,26.6,2.9,22.9,27.4,3.2,5.73,1.89,2.4,27.2
2015-08-14 00:54:00,0.0,1.90792,0.00047,383.944,0.135,0.9565,0.0030,140.001,45.000,34470.49074,1.92637,388.481,32.435,45.068,45.000,0.00,0.10,-272.74,-272.80,-7,1010,-5,23.2,26.4,2.8,22.9,27.3,3.1,5.73,1.84,2.4,27.2
2015-08-14 00:55:00,0.0,1.90820,0.00036,383.887,0.150,0.9557,0.0019,139.997,45.000,34470.50770,1.92673,388.440,32.424,45.068,45.000,0.00,0.10,-272.73,-272.80,-7,1010,-5,23.2,26.4,2.8,22.9,27.2,3.0,5.73,1.89,2.4,27.2
2015-08-14 00:56:00,0.0,1.90836,0.00041,383.870,0.108,0.9533,0.0028,140.002,45.000,34474.07759,1.92683,388.416,32.414,45.068,45.000,0.00,0.10,-272.74,-272.80,-7,1010,-5,23.2,26.3,2.8,23.0,27.2,3.0,5.73,1.97,2.4,27.2
2015-08-14 00:57:00,0.0,1.90858,0.00056,383.298,0.163,0.9516,0.0021,140.003,45.000,34474.99319,1.92700,387.826,32.416,45.068,45.000,0.00,0.10,-272.74,-272.80,-7,1010,-5,23.2,26.3,2.8,23.0,27.1,3.0,5.73,1.96,2.4,27.2
2015-08-14 00:58:00,0.0,1.90901,0.00050,383.660,0.255,0.9519,0.0015,140.000,45.000,34471.88335,1.92743,388.176,32.430,45.068,45.000,0.00,0.10,-272.73,-272.79,-7,1010,-5,23.2,26.3,2.8,22.9,27.1,3.0,5.73,1.87,2.4,27.2
2015-08-14 00:59:00,0.0,1.90875,0.00034,383.573,0.207,0.9557,0.0018,139.999,45.000,34473.77409,1.92724,388.138,32.434,45.068,45.000,0.00,0.10,-272.74,-272.80,-7,1010,-5,23.2,26.4,2.8,23.0,27.2,3.1,5.73,1.84,2.4,27.2
2015-08-14 01:00:00,0.0,1.90884,0.00032,383.499,0.198,0.9589,0.0020,140.001,45.000,34473.21825,1.92740,388.056,32.437,45.068,45.000,0.00,0.10,-272.74,-272.80,-7,1010,-5,23.2,26.5,2.9,22.9,27.3,3.1,5.73,1.91,2.4,27.1
2015-08-14 01:01:00,0.0,1.90928,0.00042,383.443,0.123,0.9582,0.0014,140.003,45.000,34472.07827,1.92784,387.995,32.438,45.068,45.000,0.00,0.10,-272.73,-272.80,-7,1010,-5,23.2,26.5,2.9,22.9,27.3,3.1,5.73,1.98,2.4,27.1
2015-08-14 01:02:00,0.0,1.90923,0.00042,383.299,0.134,0.9614,0.0023,139.998,45.000,34469.80428,1.92787,387.876,32.436,45.068,45.000,0.00,0.10,-272.73,-272.79,-7,1010,-5,23.2,26.6,2.9,22.9,27.3,3.1,5.73,1.95,2.4,27.1
2015-08-14 01:03:00,0.0,1.90915,0.00060,383.351,0.218,0.9652,0.0016,140.000,45.000,34472.11311,1.92780,387.941,32.433,45.068,45.000,0.00,0.10,-272.74,-272.80,-7,1010,-5,23.2,26.7,3.0,22.9,27.4,3.2,5.73,1.87,2.4,27.2
2015-08-14 01:04:00,0.0,1.90884,0.00041,383.236,0.086,0.9685,0.0028,140.000,45.000,34473.86965,1.92768,387.842,32.436,45.068,45.000,0.00,0.10,-272.73,-272.80,-7,1010,-5,23.2,26.8,3.0,22.9,27.5,3.2,5.73,1.84,2.4,27.2
2015-08-14 01:05:00,0.0,1.90885,0.00046,383.028,0.210,0.9702,0.0010,140.001,45.000,34475.19333,1.92763,387.647,32.438,45.068,45.000,0.00,0.10,-272.73,-272.80,-7,1010,-5,23.2,26.9,3.1,22.9,27.6,3.3,5.73,1.91,2.4,27.2
2015-08-14 01:06:00,0.0,1.90879,0.00040,383.564,0.313,0.9716,0.0025,139.998,45.000,34472.16734,1.92764,388.163,32.437,45.068,45.000,0.00,0.10,-272.74,-272.80,-7,1010,-5,23.1,26.9,3.0,22.9,27.7,3.2,5.73,1.97,2.4,27.2
2015-08-14 01:07:00,0.0,1.90884,0.00035,383.406,0.213,0.9724,0.0029,139.999,45.000,34472.07809,1.92767,388.044,32.438,45.068,45.000,0.00,0.10,-272.74,-272.80,-7,1010,-5,23.2,26.9,3.1,22.9,27.7,3.3,5.73,1.95,2.4,27.1
2015-08-14 01:08:00,0.0,1.90904,0.00035,383.170,0.115,0.9696,0.0039,140.002,45.000,34472.51250,1.92780,387.795,32.437,45.068,45.000,0.00,0.10,-272.73,-272.79,-7,1010,-5,23.1,26.8,3.0,22.9,27.7,3.3,5.73,1.87,2.4,27.2
2015-08-14 01:09:00,0.0,1.90885,0.00044,382.952,0.118,0.9665,0.0030,139.999,45.000,34471.04880,1.92763,387.534,32.437,45.069,45.000,0.00,0.10,-272.74,-272.80,-7,1010,-5,23.1,26.8,3.0,22.9,27.6,3.2,5.73,1.84,2.4,27.2
2015-08-14 01:10:00,0.0,1.90858,0.00058,382.826,0.366,0.9758,0.0028,140.001,45.000,34471.08659,1.92750,387.441,32.436,45.068,45.000,0.00,0.10,-272.74,-272.80,-7,1010,-5,23.2,27.0,3.1,22.9,27.8,3.3,5.73,1.91,2.4,27.2
2015-08-14 01:11:00,0.0,1.90768,0.00035,383.321,0.347,0.9768,0.0020,140.002,45.000,34471.57959,1.92658,387.985,32.438,45.068,45.000,0.00,0.10,-272.73,-272.80,-7,1010,-5,23.1,27.1,3.2,22.9,27.8,3.4,5.73,1.98,2.4,27.2
2015-08-14 01:12:00,0.0,1.90810,0.00035,382.421,0.262,0.9832,0.0032,140.000,45.000,34469.17523,1.92715,387.093,32.440,45.068,45.000,0.00,0.10,-272.73,-272.80,-7,1010,-5,23.2,27.2,3.2,22.9,28.0,3.4,5.73,1.95,2.4,27.2
2015-08-14 01:13:00,0.0,1.90627,0.00089,383.298,0.355,0.9743,0.0025,139.998,45.000,34470.47982,1.92530,387.915,32.438,45.068,45.000,0.00,0.10,-272.74,-272.80,-7,1010,-5,23.1,27.0,3.1,22.9,27.8,3.3,5.73,1.86,2.4,27.1
2015-08-14 01:14:00,0.0,1.90442,0.00072,383.815,0.106,0.9791,0.0023,140.000,45.000,34470.29797,1.92344,388.472,32.438,45.068,45.000,0.00,0.10,-272.74,-272.79,-7,1010,-5,23.1,27.1,3.2,22.9,27.9,3.4,5.73,1.84,2.4,27.2
2015-08-14 01:15:00,0.0,1.90431,0.00060,383.814,0.149,0.9663,0.0085,140.001,45.000,34472.29857,1.92289,388.415,32.438,45.068,45.000,0.00,0.10,-272.73,-272.79,-7,1010,-5,23.1,26.7,2.9,22.9,27.6,3.3,5.73,1.92,2.4,27.2
2015-08-14 01:16:00,0.0,1.90524,0.00029,383.767,0.131,0.9439,0.0037,140.002,45.000,34471.75567,1.92349,388.273,32.439,45.068,45.000,0.00,0.10,-272.74,-272.80,-7,1010,-5,23.1,26.0,2.6,23.0,26.9,2.9,5.73,1.98,2.4,27.2
2015-08-14 01:17:00,0.0,1.90557,0.00042,383.536,0.222,0.9413,0.0016,140.002,45.000,34472.17859,1.92374,388.003,32.438,45.068,45.000,0.00,0.10,-272.74,-272.80,-7,1010,-5,23.1,26.0,2.6,22.9,26.8,2.8,5.73,1.94,2.4,27.2
2015-08-14 01:18:00,0.0,1.90502,0.00033,383.663,0.207,0.9448,0.0021,140.000,45.000,34472.08445,1.92329,388.169,32.438,45.068,45.000,0.00,0.10,-272.73,-272.79,-7,1010,-5,23.1,26.1,2.6,22.9,26.9,2.9,5.73,1.86,2.4,27.1
2015-08-14 01:19:00,0.0,1.90527,0.00038,383.413,0.316,0.9446,0.0018,140.003,45.000,34471.74065,1.92355,387.885,32.438,45.068,45.000,0.00,0.10,-272.74,-272.80,-7,1010,-5,23.1,26.1,2.6,22.9,26.8,2.9,5.73,1.85,2.4,27.2
2015-08-14 01:20:00,0.0,1.90431,0.00035,383.762,0.263,0.9466,0.0024,140.000,45.000,34471.02528,1.92260,388.283,32.438,45.068,45.000,0.00,0.10,-272.74,-272.80,-7,1010,-5,23.1,26.2,2.7,22.9,26.9,2.9,5.73,1.92,2.4,27.1
2015-08-14 01:21:00,0.0,1.90432,0.00034,383.767,0.298,0.9413,0.0047,139.999,45.000,34472.22838,1.92256,388.228,32.444,45.068,45.000,0.00,0.10,-272.73,-272.80,-7,1010,-5,23.1,26.0,2.6,22.9,26.8,2.8,5.73,1.97,2.4,27.1
2015-08-14 01:22:00,0.0,1.90403,0.00020,383.756,0.252,0.9340,0.0040,140.000,45.000,34474.28916,1.92202,388.204,32.443,45.068,45.000,0.00,0.10,-272.73,-272.80,-7,1010,-5,23.1,25.8,2.4,22.9,26.6,2.7,5.73,1.94,2.4,27.1
2015-08-14 01:23:00,0.0,1.90462,0.00043,383.809,0.242,0.9307,0.0018,139.999,45.000,34472.91671,1.92261,388.244,32.443,45.068,45.000,0.00,0.10,-272.74,-272.80,-7,1010,-5,23.1,25.7,2.4,22.9,26.4,2.6,5.73,1.85,2.4,27.1
2015-08-14 01:24:00,0.0,1.90427,0.00031,383.632,0.218,0.9289,0.0024,139.999,45.000,34473.04666,1.92222,388.031,32.442,45.068,45.000,0.00,0.10,-272.73,-272.80,-7,1010,-5,23.1,25.7,2.4,22.9,26.4,2.6,5.73,1.86,2.4,27.1
2015-08-14 01:25:00,0.0,1.90344,0.00055,384.094,0.129,0.9320,0.0027,139.998,45.000,34472.93798,1.92144,388.519,32.438,45.068,45.000,0.00,0.10,-272.74,-272.79,-7,1010,-5,23.1,25.7,2.4,22.9,26.5,2.7,5.73,1.93,2.4,27.1
2015-08-14 01:26:00,0.0,1.90379,0.00046,384.366,0.083,0.9149,0.0052,140.004,45.000,34474.28004,1.92147,388.725,32.438,45.068,45.000,0.00,0.10,-272.74,-272.80,-7,1010,-5,23.2,25.2,2.2,22.9,26.1,2.5,5.73,1.98,2.4,27.1
2015-08-14 01:27:00,0.0,1.90362,0.00036,384.152,0.162,0.8996,0.0024,140.005,45.000,34475.36250,1.92095,388.436,32.438,45.068,45.000,0.00,0.10,-272.74,-272.80,-7,1010,-5,23.1,24.8,1.9,22.9,25.6,2.2,5.73,1.93,2.4,27.1
2015-08-14 01:28:00,0.0,1.90364,0.00034,384.162,0.210,0.9039,0.0030,140.001,45.000,34471.51146,1.92107,388.455,32.437,45.068,45.000,0.00,0.10,-272.73,-272.79,-7,1010,-5,23.1,25.0,2.0,22.9,25.6,2.2,5.73,1.85,2.4,27.1
2015-08-14 01:29:00,0.0,1.90339,0.00052,384.088,0.262,0.9024,0.0032,140.004,45.000,34474.30281,1.92079,388.401,32.438,45.068,45.000,0.00,0.10,-272.73,-272.80,-7,1010,-5,23.1,24.9,2.0,22.9,25.7,2.2,5.73,1.86,2.4,27.1
2015-08-14 01:30:00,0.0,1.90322,0.00073,383.964,0.468,0.9045,0.0054,140.006,45.000,34472.64593,1.92068,388.248,32.440,45.068,45.000,0.00,0.10,-272.74,-272.80,-7,1010,-5,23.1,25.0,2.0,22.9,25.6,2.2,5.73,1.95,2.4,27.1
2015-08-14 01:31:00,0.0,1.90318,0.00053,383.870,0.226,0.9126,0.0026,139.999,45.000,34470.92754,1.92077,388.215,32.438,45.068,45.000,0.00,0.10,-272.74,-272.80,-7,1010,-5,23.1,25.2,2.1,22.9,25.9,2.4,5.73,1.97,2.4,27.1
2015-08-14 01:32:00,0.0,1.90308,0.00059,383.573,0.315,0.9167,0.0050,140.001,45.000,34472.79557,1.92076,387.925,32.438,45.068,45.000,0.00,0.10,-272.74,-272.79,-7,1010,-5,23.1,25.4,2.2,22.9,26.0,2.4,5.73,1.91,2.4,27.1
2015-08-14 01:33:00,0.0,1.90320,0.00036,384.103,0.121,0.9254,0.0029,139.997,45.000,34471.16251,1.92105,388.500,32.441,45.068,45.000,0.00,0.10,-272.73,-272.80,-7,1010,-5,23.1,25.6,2.3,23.0,26.3,2.6,5.73,1.83,2.4,27.1
2015-08-14 01:34:00,0.0,1.90302,0.00036,383.951,0.271,0.9142,0.0029,140.000,45.000,34472.65701,1.92063,388.314,32.440,45.068,45.000,0.00,0.10,-272.73,-272.80,-7,1011,-5,23.1,25.2,2.1,22.9,26.0,2.4,5.73,1.87,2.4,27.1
2015-08-14 01:35:00,0.0,1.90289,0.00038,383.397,0.404,0.9148,0.0040,140.000,45.000,34474.69932,1.92056,387.723,32.442,45.068,45.000,0.00,0.10,-272.73,-272.79,-7,1010,-5,23.2,25.3,2.2,22.9,26.0,2.4,5.73,1.97,2.4,27.1
2015-08-14 01:36:00,0.0,1.90284,0.00041,383.999,0.186,0.9264,0.0038,140.002,45.000,34472.87047,1.92071,388.405,32.449,45.068,45.000,0.00,0.10,-272.74,-272.80,-7,1010,-5,23.2,25.6,2.4,22.9,26.3,2.6,5.73,1.97,2.4,27.2
2015-08-14 01:37:00,0.0,1.90251,0.00049,384.185,0.169,0.9158,0.0035,140.004,45.000,34474.37628,1.92018,388.553,32.469,45.068,45.000,0.00,0.10,-272.75,-272.80,-7,1010,-5,23.1,25.2,2.1,22.9,26.1,2.4,5.73,1.88,2.4,27.2
2015-08-14 01:38:00,0.0,1.90259,0.00055,384.221,0.122,0.9082,0.0021,139.998,45.000,34471.68511,1.92006,388.529,32.485,45.068,45.000,0.00,0.10,-272.74,-272.80,-7,1010,-5,23.1,25.1,2.0,22.9,25.8,2.3,5.73,1.84,2.4,27.2
2015-08-14 01:39:00,0.0,1.90330,0.00043,384.286,0.095,0.9064,0.0026,140.001,45.000,34471.45194,1.92076,388.607,32.489,45.068,45.000,0.00,0.10,-272.73,-272.80,-7,1010,-5,23.1,25.0,2.0,22.9,25.8,2.3,5.73,1.89,2.4,27.2
2015-08-14 01:40:00,0.0,1.90341,0.00036,383.851,0.189,0.9006,0.0025,139.999,45.000,34472.83399,1.92077,388.146,32.476,45.068,45.000,0.00,0.10,-272.74,-272.80,-7,1010,-5,23.1,24.9,1.9,22.9,25.6,2.2,5.73,1.98,2.4,27.1
2015-08-14 01:41:00,0.0,1.90340,0.00033,383.871,0.160,0.9094,0.0027,140.001,45.000,34473.06403,1.92093,388.186,32.473,45.068,45.000,0.00,0.10,-272.74,-272.80,-7,1010,-5,23.1,25.1,2.1,22.9,25.8,2.3,5.73,1.95,2.4,27.1
2015-08-14 01:42:00,0.0,1.90359,0.00029,383.416,0.171,0.9099,0.0020,139.999,45.000,34473.92177,1.92113,387.746,32.474,45.068,45.000,0.00,0.10,-272.73,-272.79,-7,1010,-5,23.1,25.1,2.1,22.9,25.9,2.3,5.73,1.87,2.4,27.1
2015-08-14 01:43:00,0.0,1.90319,0.00054,383.647,0.171,0.9161,0.0037,140.002,45.000,34472.27383,1.92089,387.995,32.476,45.068,45.000,0.00,0.10,-272.74,-272.80,-7,1010,-5,23.1,25.3,2.2,22.9,26.0,2.4,5.73,1.84,2.4,27.1
2015-08-14 01:44:00,0.0,1.90265,0.00042,383.655,0.152,0.9210,0.0025,140.000,45.000,34471.87040,1.92046,388.018,32.461,45.068,45.000,0.00,0.10,-272.74,-272.80,-7,1010,-5,23.1,25.5,2.3,22.9,26.2,2.5,5.73,1.91,2.4,27.1
2015-08-14 01:45:00,0.0,1.90193,0.00027,383.545,0.234,0.9223,0.0023,140.001,45.000,34473.62437,1.91972,387.943,32.470,45.068,45.000,0.00,0.10,-272.73,-272.80,-7,1010,-5,23.1,25.5,2.3,22.9,26.2,2.5,5.73,1.98,2.4,27.1
2015-08-14 01:46:00,0.0,1.90121,0.00036,383.821,0.249,0.9216,0.0029,139.998,45.000,34471.72046,1.91900,388.186,32.452,45.068,45.000,0.00,0.10,-272.74,-272.80,-7,1010,-5,23.1,25.5,2.3,22.9,26.2,2.5,5.73,1.94,2.4,27.2
2015-08-14 01:47:00,0.0,1.90120,0.00041,383.711,0.226,0.9182,0.0031,139.999,45.000,34472.94085,1.91891,388.087,32.454,45.068,45.000,0.00,0.10,-272.74,-272.81,-7,1010,-5,23.2,25.4,2.2,22.9,26.2,2.5,5.73,1.86,2.4,27.1